14P/Wolf (2000)

Japanese version
Home page
Updated on July 21, 2013

---------------------------------------------------------------------

* Profile

* Pictures

* Orbital Elements

Epoch 2000 Dec. 2.0 TT = JDT 2451880.5
T 2000 Nov. 21.07404 TT                                 Muraoka
q   2.4126313            (2000.0)            P               Q
n   0.12005656     Peri.  162.36363     +0.97959046     -0.06885693
a   4.0695413      Node   204.12073     +0.07663459     +0.99647288
e   0.4071491      Incl.   27.52266     +0.18582162     -0.04796374
P   8.21
>From 69 observations 1950-1993, mean residual 0".86.

* Finding Charts

* Magnitudes Graph

        m1 = 15.0 + 5 log d + 6.0 log r

---------------------------------------------------------------------

The orbital elements are calculated by Kenji Muraoka.
The charts are made with StellaNavigator Ver.2.0 for Windows (AstroArts / ASCII).
The magnitudes graphs are made with Comet for Windows.

---------------------------------------------------------------------

Copyright(C) Seiichi Yoshida (comet@aerith.net). All rights reserved.